Weather in Oksovskiy

Russia / Arkhangel'skaya Oblast'     62°36′25″N   39°54′56″E
temp.,
°C
wind,
m/s
gust,
m/s
humid.,
%
clouds,
%
prec.,
mm/h
press.,
hPa
HPBL,
m
28 february, sun
sun2800:00−8nw129794 0.1 101221
03:00−8nw239793 0.2 101275
06:00−7nw119798 0.2 101221
09:00−7w129798 0.4 101382
12:00−3sw119086 0.1 1013313
15:00−2wsw249089 0.2 1014465
18:00−3sw2493100 0.1 1014128
21:00−3sw2795100 0.1 1015301
1 march, mon
mon100:00−7sw379675 0.0 1014176
03:00−4sw399587 0.2 1012425
06:00−1sw41193100 0.1 1009736
09:000w51195100 0.2 1007949
12:00+1wsw51298100 0.3 1004651
15:00+1w41198100 0.4 1003583
18:00+1w3998100 1.2 1000506
21:00+1wnw3998100 2.4 999615
2 march, tue
tue200:00−2w389098 0.1 998233
03:00−3w129997 0.8 99869
06:00−3wnw31193100 0.1 997578
09:00−2wnw51190100 0.5 997868
12:00−1wnw61191100 0.2 9971078
15:00−2nw61180100 0.4 10001185
18:00−4nw4128762 0.0 1002673
21:00−6nw4129346 0.1 1005481
3 march, wed
wed300:00−7nw3129480 0.0 1007410
03:00−7nw3119472 0.0 1009541
06:00−9wnw3109591 0.0 1009354
09:00−9wnw389494 0.1 1009417
12:00−5wnw388695 0.0 1009572
15:00−4w379398 0.1 1007588
18:00−4wsw3891100 0.1 1003571
21:00−4sw3995100 0.2 999585
4 march, thu
thu400:00−3ssw51296100 1.5 993813
03:00−1sw31097100 3.8 986565
06:00−2w2798100 1.2 982325
09:00−3wnw51190100 2.7 982901
12:00−5nw71390100 0.6 9861024
15:00−6nw71389100 1.3 9891095
18:00−9nw51289100 0.1 992763
21:00−11nw31293100 0.2 994443